TimeCST,TemperatureF,Dew PointF,Humidity,Sea Level PressureIn,VisibilityMPH,Wind Direction,Wind SpeedMPH,Gust SpeedMPH,PrecipitationIn,Events,Conditions,WindDirDegrees,DateUTC
12:15 AM,19.2,13.1,77,30.44,10.0,East,3.5,-,N/A,,Clear,80,2013-12-25 06:15:00
12:35 AM,19.0,13.5,79,30.43,10.0,East,4.6,-,N/A,,Clear,80,2013-12-25 06:35:00
12:55 AM,18.7,13.6,81,30.42,10.0,East,4.6,-,N/A,,Clear,100,2013-12-25 06:55:00
1:15 AM,19.0,13.8,80,30.42,10.0,Calm,Calm,-,N/A,,Clear,0,2013-12-25 07:15:00
1:35 AM,19.9,13.5,76,30.42,10.0,East,3.5,-,N/A,,Clear,80,2013-12-25 07:35:00
1:55 AM,19.9,13.3,75,30.42,10.0,ENE,3.5,-,N/A,,Clear,70,2013-12-25 07:55:00
2:15 AM,19.6,13.8,78,30.42,10.0,Calm,Calm,-,N/A,,Clear,0,2013-12-25 08:15:00
2:35 AM,19.6,13.6,78,30.42,10.0,Calm,Calm,-,N/A,,Clear,0,2013-12-25 08:35:00
2:55 AM,19.2,13.8,80,30.42,10.0,Calm,Calm,-,N/A,,Clear,0,2013-12-25 08:55:00
3:15 AM,19.4,13.8,79,30.41,10.0,Calm,Calm,-,N/A,,Clear,0,2013-12-25 09:15:00
3:35 AM,18.9,13.8,81,30.41,10.0,Calm,Calm,-,N/A,,Clear,0,2013-12-25 09:35:00
3:55 AM,18.3,13.8,83,30.41,10.0,Calm,Calm,-,N/A,,Clear,0,2013-12-25 09:55:00
4:15 AM,18.7,14.0,82,30.41,10.0,Calm,Calm,-,N/A,,Clear,0,2013-12-25 10:15:00
4:35 AM,18.3,13.8,83,30.41,10.0,Calm,Calm,-,N/A,,Clear,0,2013-12-25 10:35:00
4:55 AM,17.6,14.0,86,30.40,10.0,Calm,Calm,-,N/A,,Clear,0,2013-12-25 10:55:00
5:15 AM,17.8,14.5,87,30.41,10.0,North,4.6,-,N/A,,Clear,10,2013-12-25 11:15:00
5:35 AM,18.0,14.7,87,30.41,10.0,Calm,Calm,-,N/A,,Clear,0,2013-12-25 11:35:00
5:55 AM,17.6,14.5,88,30.41,10.0,Calm,Calm,-,N/A,,Clear,0,2013-12-25 11:55:00
6:15 AM,17.2,14.7,90,30.42,10.0,Calm,Calm,-,N/A,,Clear,0,2013-12-25 12:15:00
6:35 AM,17.2,14.5,89,30.43,10.0,Calm,Calm,-,N/A,,Clear,0,2013-12-25 12:35:00
6:55 AM,17.2,14.5,89,30.43,10.0,Calm,Calm,-,N/A,,Clear,0,2013-12-25 12:55:00
7:15 AM,17.4,14.5,88,30.44,10.0,Calm,Calm,-,N/A,,Clear,0,2013-12-25 13:15:00
7:35 AM,18.3,15.4,89,30.44,10.0,Calm,Calm,-,N/A,,Clear,0,2013-12-25 13:35:00
7:55 AM,20.5,16.7,85,30.44,10.0,Calm,Calm,-,N/A,,Clear,0,2013-12-25 13:55:00
8:15 AM,22.6,17.1,79,30.43,10.0,Calm,Calm,-,N/A,,Clear,0,2013-12-25 14:15:00
8:35 AM,24.4,17.1,73,30.43,10.0,South,3.5,-,N/A,,Clear,190,2013-12-25 14:35:00
8:55 AM,26.6,17.1,67,30.43,10.0,SSW,5.8,-,N/A,,Clear,200,2013-12-25 14:55:00
9:15 AM,28.0,17.6,65,30.43,10.0,South,4.6,-,N/A,,Clear,180,2013-12-25 15:15:00
9:35 AM,29.8,18.5,63,30.43,10.0,SSW,5.8,-,N/A,,Clear,200,2013-12-25 15:35:00
9:55 AM,30.9,18.3,60,30.43,10.0,SSW,6.9,-,N/A,,Clear,200,2013-12-25 15:55:00
10:15 AM,32.0,18.5,58,30.42,10.0,SSW,5.8,-,N/A,,Clear,200,2013-12-25 16:15:00
10:35 AM,33.4,18.7,55,30.41,10.0,SW,6.9,-,N/A,,Clear,230,2013-12-25 16:35:00
10:55 AM,34.7,18.1,51,30.40,10.0,SSW,9.2,-,N/A,,Clear,210,2013-12-25 16:55:00
11:15 AM,35.4,16.9,47,30.38,10.0,SSW,8.1,-,N/A,,Clear,210,2013-12-25 17:15:00
11:35 AM,36.3,16.9,45,30.37,10.0,SW,5.8,-,N/A,,Clear,230,2013-12-25 17:35:00
11:55 AM,37.2,16.7,43,30.36,10.0,SSW,8.1,-,N/A,,Clear,210,2013-12-25 17:55:00
12:15 PM,38.5,18.1,44,30.34,10.0,SW,8.1,-,N/A,,Clear,220,2013-12-25 18:15:00
12:35 PM,39.6,17.8,41,30.32,10.0,South,5.8,-,N/A,,Clear,190,2013-12-25 18:35:00
12:55 PM,40.5,16.2,37,30.32,10.0,SSW,8.1,-,N/A,,Clear,210,2013-12-25 18:55:00
1:15 PM,41.4,13.8,33,30.31,10.0,SSW,9.2,-,N/A,,Clear,210,2013-12-25 19:15:00
1:35 PM,41.9,12.7,31,30.30,10.0,SW,11.5,-,N/A,,Clear,220,2013-12-25 19:35:00
1:55 PM,42.8,12.0,29,30.29,10.0,SW,5.8,-,N/A,,Clear,220,2013-12-25 19:55:00
2:15 PM,43.2,11.1,27,30.29,10.0,SSW,8.1,-,N/A,,Clear,200,2013-12-25 20:15:00
2:35 PM,43.3,13.5,30,30.29,10.0,South,8.1,-,N/A,,Clear,180,2013-12-25 20:35:00
2:55 PM,43.2,14.7,32,30.29,10.0,South,8.1,-,N/A,,Clear,190,2013-12-25 20:55:00
3:15 PM,43.0,15.6,33,30.29,10.0,SSW,5.8,-,N/A,,Scattered Clouds,200,2013-12-25 21:15:00
3:35 PM,42.3,15.6,34,30.28,10.0,SSW,5.8,-,N/A,,Mostly Cloudy,200,2013-12-25 21:35:00
3:55 PM,41.5,16.5,36,30.28,10.0,South,6.9,-,N/A,,Overcast,190,2013-12-25 21:55:00
4:15 PM,41.4,16.7,37,30.28,10.0,South,5.8,-,N/A,,Overcast,190,2013-12-25 22:15:00
4:35 PM,41.0,17.2,38,30.27,10.0,South,4.6,-,N/A,,Overcast,190,2013-12-25 22:35:00
4:55 PM,40.5,17.2,39,30.27,10.0,South,4.6,-,N/A,,Overcast,190,2013-12-25 22:55:00
5:15 PM,39.7,17.2,40,30.27,10.0,SW,3.5,-,N/A,,Mostly Cloudy,220,2013-12-25 23:15:00
5:35 PM,38.5,17.6,43,30.27,10.0,SW,4.6,-,N/A,,Scattered Clouds,220,2013-12-25 23:35:00
5:55 PM,36.1,18.3,48,30.28,10.0,SW,3.5,-,N/A,,Mostly Cloudy,220,2013-12-25 23:55:00
6:15 PM,35.4,18.5,50,30.28,10.0,Calm,Calm,-,N/A,,Overcast,0,2013-12-26 00:15:00
6:35 PM,36.5,18.0,47,30.28,10.0,Calm,Calm,-,N/A,,Overcast,0,2013-12-26 00:35:00
6:55 PM,36.5,19.8,51,30.27,10.0,Calm,Calm,-,N/A,,Overcast,0,2013-12-26 00:55:00
7:15 PM,36.5,21.0,54,30.28,10.0,Calm,Calm,-,N/A,,Overcast,0,2013-12-26 01:15:00
7:35 PM,37.9,19.2,47,30.27,10.0,South,5.8,-,N/A,,Overcast,190,2013-12-26 01:35:00
7:55 PM,38.7,19.8,47,30.27,10.0,SSW,3.5,-,N/A,,Overcast,200,2013-12-26 01:55:00
8:15 PM,39.2,19.9,46,30.27,10.0,SSW,3.5,-,N/A,,Overcast,210,2013-12-26 02:15:00
8:35 PM,38.8,20.3,47,30.27,10.0,SSW,3.5,-,N/A,,Overcast,210,2013-12-26 02:35:00
8:55 PM,38.5,21.0,50,30.27,10.0,SW,4.6,-,N/A,,Overcast,220,2013-12-26 02:55:00
9:15 PM,38.5,21.9,51,30.27,10.0,SW,3.5,-,N/A,,Overcast,230,2013-12-26 03:15:00
9:35 PM,38.5,23.2,54,30.28,10.0,WSW,5.8,-,N/A,,Overcast,240,2013-12-26 03:35:00
9:55 PM,38.8,22.5,52,30.28,10.0,West,4.6,-,N/A,,Overcast,260,2013-12-26 03:55:00
10:15 PM,38.1,22.6,54,30.28,10.0,WSW,4.6,-,N/A,,Overcast,240,2013-12-26 04:15:00
10:35 PM,36.9,23.0,57,30.28,10.0,SW,5.8,-,N/A,,Mostly Cloudy,230,2013-12-26 04:35:00
10:55 PM,35.6,21.9,58,30.28,10.0,WSW,4.6,-,N/A,,Scattered Clouds,250,2013-12-26 04:55:00
11:15 PM,35.2,21.4,57,30.28,10.0,WSW,4.6,-,N/A,,Mostly Cloudy,240,2013-12-26 05:15:00
11:35 PM,34.7,21.7,59,30.28,10.0,WSW,5.8,-,N/A,,Overcast,240,2013-12-26 05:35:00
11:55 PM,34.5,21.6,59,30.28,10.0,WSW,4.6,-,N/A,,Overcast,250,2013-12-26 05:55:00